This is the latest recevied weather packets stored in our database for station/object AJ5AG. If no packets are shown the sender has not sent any weather packets the latest 10 day(s).
| Time | Temp. | Humidity | Pressure | Rain* | Wind** | Luminosity | Snow |
|---|---|---|---|---|---|---|---|
| 1777236527 | 30° C | 70% | 1010.8 hPa | 0 mm | - | 181 W/m² | - |
| 1777236224 | 30° C | 70% | 1010.8 hPa | 0 mm | - | 239 W/m² | - |
| 1777235919 | 29.44° C | 72% | 1011.1 hPa | 0 mm | - | 243 W/m² | - |
| 1777235616 | 28.89° C | 71% | 1011 hPa | 0 mm | - | 171 W/m² | - |
| 1777235313 | 29.44° C | 72% | 1011.1 hPa | 0 mm | - | 143 W/m² | - |
| 1777235009 | 29.44° C | 71% | 1011 hPa | 0 mm | - | 117 W/m² | - |
| 1777234705 | 29.44° C | 72% | 1011.3 hPa | 0 mm | - | 247 W/m² | - |
| 1777234401 | 29.44° C | 72% | 1011.3 hPa | 0 mm | - | 153 W/m² | - |
| 1777234096 | 30° C | 70% | 1011.2 hPa | 0 mm | - | 167 W/m² | - |
| 1777233792 | 30° C | 69% | 1011.2 hPa | 0 mm | - | 230 W/m² | - |
| 1777233489 | 30° C | 71% | 1011.4 hPa | 0 mm | - | 682 W/m² | - |
| 1777233189 | 29.44° C | 73% | 1011.3 hPa | 0 mm | - | 663 W/m² | - |
| 1777232889 | 29.44° C | 72% | 1011.5 hPa | 0 mm | - | 194 W/m² | - |
| 1777232587 | 30° C | 69% | 1011.4 hPa | 0 mm | - | 740 W/m² | - |
| 1777232286 | 30° C | 70% | 1011.5 hPa | 0 mm | - | 705 W/m² | - |
| 1777231981 | 29.44° C | 71% | 1011.6 hPa | 0 mm | - | 644 W/m² | - |
| 1777231679 | 29.44° C | 72% | 1011.7 hPa | 0 mm | - | 764 W/m² | - |
| 1777231375 | 28.89° C | 73% | 1011.6 hPa | 0 mm | - | 695 W/m² | - |
| 1777231071 | 28.89° C | 74% | 1011.7 hPa | 0 mm | - | 634 W/m² | - |
| 1777230768 | 28.33° C | 75% | 1012.1 hPa | 0 mm | - | 562 W/m² | - |
| 1777230462 | 28.33° C | 76% | 1012.1 hPa | 0 mm | - | 218 W/m² | - |
| 1777230159 | 28.89° C | 74% | 1012 hPa | 0 mm | - | 223 W/m² | - |
| 1777229856 | 28.89° C | 73% | 1012.1 hPa | 0 mm | - | 327 W/m² | - |
| 1777229552 | 28.89° C | 73% | 1012.2 hPa | 0 mm | - | 326 W/m² | - |
| 1777229250 | 28.33° C | 75% | 1012.3 hPa | 0 mm | - | 755 W/m² | - |
* Rain latest hour (hover to see other rain measurements)
** Current wind speed in m/s (hover to see current wind gust speed)